TimeEST,TemperatureF,Dew PointF,Humidity,Sea Level PressureIn,VisibilityMPH,Wind Direction,Wind SpeedMPH,Gust SpeedMPH,PrecipitationIn,Events,Conditions,WindDirDegrees,DateUTC
12:53 AM,39.0,30.9,73,30.10,10.0,Calm,Calm,-,N/A,,Clear,0,2012-02-18 05:53:00
1:53 AM,37.0,30.9,79,30.11,10.0,Calm,Calm,-,N/A,,Clear,0,2012-02-18 06:53:00
2:53 AM,37.0,30.9,79,30.10,10.0,SSW,3.5,-,N/A,,Clear,210,2012-02-18 07:53:00
3:53 AM,36.0,30.9,82,30.10,10.0,Calm,Calm,-,N/A,,Clear,0,2012-02-18 08:53:00
4:53 AM,35.1,30.0,82,30.10,10.0,Calm,Calm,-,N/A,,Overcast,0,2012-02-18 09:53:00
5:53 AM,35.1,30.9,85,30.09,10.0,Calm,Calm,-,N/A,,Clear,0,2012-02-18 10:53:00
6:53 AM,35.6,32.0,87,30.12,10.0,SSW,3.5,-,N/A,,Overcast,200,2012-02-18 11:53:00
7:53 AM,37.0,33.1,86,30.11,10.0,Calm,Calm,-,N/A,,Mostly Cloudy,0,2012-02-18 12:53:00
8:53 AM,44.1,32.0,63,30.11,10.0,Calm,Calm,-,N/A,,Overcast,0,2012-02-18 13:53:00
9:53 AM,48.2,30.2,50,30.13,10.0,WSW,3.5,-,N/A,,Partly Cloudy,240,2012-02-18 14:53:00
10:53 AM,53.1,24.1,32,30.08,10.0,WSW,3.5,-,N/A,,Clear,240,2012-02-18 15:53:00
11:53 AM,55.4,23.0,29,30.08,10.0,Variable,4.6,-,N/A,,Clear,0,2012-02-18 16:53:00
12:53 PM,60.8,24.8,25,30.04,10.0,Variable,5.8,-,N/A,,Clear,0,2012-02-18 17:53:00
1:53 PM,61.0,24.1,24,29.97,10.0,SSW,9.2,-,N/A,,Clear,200,2012-02-18 18:53:00
2:53 PM,61.0,26.1,26,29.96,10.0,Variable,6.9,-,N/A,,Clear,0,2012-02-18 19:53:00
3:53 PM,60.1,28.9,31,29.98,10.0,SW,8.1,-,N/A,,Clear,220,2012-02-18 20:53:00
4:53 PM,59.0,30.0,33,29.97,10.0,SW,8.1,-,N/A,,Clear,220,2012-02-18 21:53:00
5:53 PM,55.0,33.1,43,29.95,10.0,Calm,Calm,-,N/A,,Clear,0,2012-02-18 22:53:00
6:53 PM,51.1,33.1,50,29.96,10.0,SW,3.5,-,N/A,,Clear,220,2012-02-18 23:53:00
7:53 PM,50.0,34.0,54,29.96,10.0,SSW,3.5,-,N/A,,Clear,200,2012-02-19 00:53:00
8:53 PM,50.0,34.0,54,29.97,10.0,Calm,Calm,-,N/A,,Clear,0,2012-02-19 01:53:00
9:53 PM,48.9,35.1,59,29.99,10.0,Calm,Calm,-,N/A,,Clear,0,2012-02-19 02:53:00
10:53 PM,48.9,36.0,61,29.98,10.0,Calm,Calm,-,N/A,,Clear,0,2012-02-19 03:53:00
11:53 PM,46.9,37.9,71,29.96,10.0,ENE,3.5,-,N/A,,Mostly Cloudy,70,2012-02-19 04:53:00